Time,TemperatureF,DewpointF,PressureIn,WindDirection,WindDirectionDegrees,WindSpeedMPH,WindSpeedGustMPH,Humidity,HourlyPrecipIn,Conditions,Clouds,dailyrainin,SoftwareType,DateUTC
2013-04-08 00:02:00,54.9,44.6,30.06,SSE,153,0.0,0.0,65,0.00,,,0.00,WUHU216WMR968SP,2013-04-08 04:02:00,
2013-04-08 00:07:00,54.7,44.6,30.06,SSE,153,0.0,0.0,66,0.00,,,0.00,WUHU216WMR968SP,2013-04-08 04:07:00,
2013-04-08 00:13:00,54.7,44.6,30.06,SSE,153,0.0,0.0,66,0.00,,,0.00,WUHU216WMR968SP,2013-04-08 04:13:00,
2013-04-08 00:18:00,54.3,42.8,30.06,SSE,153,0.0,0.0,67,0.00,,,0.00,WUHU216WMR968SP,2013-04-08 04:18:00,
2013-04-08 00:23:00,53.8,42.8,30.06,SSE,153,0.0,0.0,68,0.00,,,0.00,WUHU216WMR968SP,2013-04-08 04:23:00,
2013-04-08 00:28:00,53.6,44.6,30.06,SSE,153,0.0,0.0,69,0.00,,,0.00,WUHU216WMR968SP,2013-04-08 04:28:00,
2013-04-08 00:33:00,53.4,44.6,30.06,SSE,153,0.0,0.0,70,0.00,,,0.00,WUHU216WMR968SP,2013-04-08 04:33:00,
2013-04-08 00:38:00,53.2,44.6,30.06,SSE,153,0.0,0.0,71,0.00,,,0.00,WUHU216WMR968SP,2013-04-08 04:38:00,
2013-04-08 00:43:00,53.1,44.6,30.06,SSE,153,0.0,0.0,71,0.00,,,0.00,WUHU216WMR968SP,2013-04-08 04:43:00,
2013-04-08 00:48:00,53.1,44.6,30.06,SSE,153,0.0,0.0,71,0.00,,,0.00,WUHU216WMR968SP,2013-04-08 04:48:00,
2013-04-08 00:53:00,53.1,44.6,30.06,SSE,153,0.0,0.0,71,0.00,,,0.00,WUHU216WMR968SP,2013-04-08 04:53:00,
2013-04-08 00:58:00,52.9,44.6,30.06,SSE,153,0.0,0.0,71,0.00,,,0.00,WUHU216WMR968SP,2013-04-08 04:58:00,
2013-04-08 01:04:00,52.7,44.6,30.06,SSE,153,0.0,0.0,72,0.00,,,0.00,WUHU216WMR968SP,2013-04-08 05:04:00,
2013-04-08 01:09:00,52.2,42.8,30.06,SSE,153,0.0,0.0,73,0.00,,,0.00,WUHU216WMR968SP,2013-04-08 05:09:00,
2013-04-08 01:14:00,52.2,42.8,30.06,SSE,153,0.0,0.0,73,0.00,,,0.00,WUHU216WMR968SP,2013-04-08 05:14:00,
2013-04-08 01:19:00,52.2,42.8,30.06,SSE,153,0.0,0.0,73,0.00,,,0.00,WUHU216WMR968SP,2013-04-08 05:19:00,
2013-04-08 01:24:00,52.3,42.8,30.06,SSE,153,0.0,0.0,73,0.00,,,0.00,WUHU216WMR968SP,2013-04-08 05:24:00,
2013-04-08 01:29:00,52.5,42.8,30.06,SSE,153,0.0,0.0,72,0.00,,,0.00,WUHU216WMR968SP,2013-04-08 05:29:00,
2013-04-08 01:34:00,52.3,42.8,30.06,SSE,153,0.0,0.0,73,0.00,,,0.00,WUHU216WMR968SP,2013-04-08 05:34:00,
2013-04-08 01:39:00,52.2,42.8,30.06,SSE,153,0.0,0.0,73,0.00,,,0.00,WUHU216WMR968SP,2013-04-08 05:39:00,
2013-04-08 01:44:00,52.0,44.6,30.06,SSE,153,0.0,0.0,74,0.00,,,0.00,WUHU216WMR968SP,2013-04-08 05:44:00,
2013-04-08 01:49:00,51.8,44.6,30.06,SSE,153,0.0,0.0,74,0.00,,,0.00,WUHU216WMR968SP,2013-04-08 05:49:00,
2013-04-08 01:54:00,51.8,44.6,30.06,SSE,153,0.0,0.0,74,0.00,,,0.00,WUHU216WMR968SP,2013-04-08 05:54:00,
2013-04-08 01:59:00,51.8,44.6,30.06,SSE,153,0.0,0.0,75,0.00,,,0.00,WUHU216WMR968SP,2013-04-08 05:59:00,
2013-04-08 02:04:00,51.6,44.6,30.06,SSE,153,0.0,0.0,76,0.00,,,0.00,WUHU216WMR968SP,2013-04-08 06:04:00,
2013-04-08 02:09:00,51.6,44.6,30.06,SSE,153,0.0,0.0,76,0.00,,,0.00,WUHU216WMR968SP,2013-04-08 06:09:00,
2013-04-08 02:14:00,51.4,44.6,30.06,SSE,153,0.0,0.0,76,0.00,,,0.00,WUHU216WMR968SP,2013-04-08 06:14:00,
2013-04-08 02:19:00,51.3,44.6,30.06,SSE,153,0.0,0.0,76,0.00,,,0.00,WUHU216WMR968SP,2013-04-08 06:19:00,
2013-04-08 02:24:00,51.1,44.6,30.06,SSE,153,0.0,0.0,76,0.00,,,0.00,WUHU216WMR968SP,2013-04-08 06:24:00,
2013-04-08 02:29:00,51.3,44.6,30.06,SSE,153,0.0,0.0,76,0.00,,,0.00,WUHU216WMR968SP,2013-04-08 06:29:00,
2013-04-08 02:35:00,51.3,44.6,30.06,SSE,153,0.0,0.0,76,0.00,,,0.00,WUHU216WMR968SP,2013-04-08 06:35:00,
2013-04-08 02:40:00,50.9,44.6,30.06,SSE,153,0.0,0.0,76,0.00,,,0.00,WUHU216WMR968SP,2013-04-08 06:40:00,
2013-04-08 02:45:00,50.7,42.8,30.06,SSE,153,0.0,0.0,78,0.00,,,0.00,WUHU216WMR968SP,2013-04-08 06:45:00,
2013-04-08 02:50:00,50.9,46.4,30.06,SSE,153,0.0,0.0,79,0.00,,,0.00,WUHU216WMR968SP,2013-04-08 06:50:00,
2013-04-08 02:55:00,50.9,46.4,30.06,SSE,153,0.0,0.0,79,0.00,,,0.00,WUHU216WMR968SP,2013-04-08 06:55:00,
2013-04-08 03:00:00,50.9,46.4,30.06,SSE,153,0.0,0.0,79,0.00,,,0.00,WUHU216WMR968SP,2013-04-08 07:00:00,
2013-04-08 03:05:00,50.9,46.4,30.06,SSE,153,0.0,0.0,79,0.00,,,0.00,WUHU216WMR968SP,2013-04-08 07:05:00,
2013-04-08 03:10:00,50.7,44.6,30.06,SSE,153,0.0,0.0,80,0.00,,,0.00,WUHU216WMR968SP,2013-04-08 07:10:00,
2013-04-08 03:15:00,50.9,46.4,30.06,SSE,153,0.0,0.0,80,0.00,,,0.00,WUHU216WMR968SP,2013-04-08 07:15:00,
2013-04-08 03:20:00,51.1,46.4,30.06,SSE,153,0.0,0.0,80,0.00,,,0.00,WUHU216WMR968SP,2013-04-08 07:20:00,
2013-04-08 03:25:00,51.3,46.4,30.06,SSE,153,0.0,0.0,81,0.00,,,0.00,WUHU216WMR968SP,2013-04-08 07:25:00,
2013-04-08 03:30:00,51.6,46.4,30.06,SSE,153,0.0,0.0,81,0.00,,,0.00,WUHU216WMR968SP,2013-04-08 07:30:00,
2013-04-08 03:35:00,51.6,46.4,30.06,SSE,153,0.0,0.0,80,0.00,,,0.00,WUHU216WMR968SP,2013-04-08 07:35:00,
2013-04-08 03:40:00,51.8,46.4,30.06,SSE,153,0.0,0.0,80,0.00,,,0.00,WUHU216WMR968SP,2013-04-08 07:40:00,
2013-04-08 03:45:00,52.0,46.4,30.06,SSE,153,0.0,0.0,80,0.00,,,0.00,WUHU216WMR968SP,2013-04-08 07:45:00,
2013-04-08 03:50:00,51.8,46.4,30.06,SSE,153,0.0,0.0,80,0.00,,,0.00,WUHU216WMR968SP,2013-04-08 07:50:00,
2013-04-08 03:55:00,51.6,46.4,30.06,SSE,153,0.0,0.0,80,0.00,,,0.00,WUHU216WMR968SP,2013-04-08 07:55:00,
2013-04-08 04:01:00,51.4,46.4,30.06,SSE,153,0.0,0.0,80,0.00,,,0.00,WUHU216WMR968SP,2013-04-08 08:01:00,
2013-04-08 04:06:00,51.3,46.4,30.06,SSE,153,0.0,0.0,80,0.00,,,0.00,WUHU216WMR968SP,2013-04-08 08:06:00,
2013-04-08 04:11:00,51.1,46.4,30.06,SSE,153,0.0,0.0,81,0.00,,,0.00,WUHU216WMR968SP,2013-04-08 08:11:00,
2013-04-08 04:16:00,50.9,46.4,30.06,SSE,153,0.0,0.0,81,0.00,,,0.00,WUHU216WMR968SP,2013-04-08 08:16:00,
2013-04-08 04:21:00,50.7,44.6,30.06,SSE,153,0.0,0.0,81,0.00,,,0.00,WUHU216WMR968SP,2013-04-08 08:21:00,
2013-04-08 04:26:00,50.7,44.6,30.06,SSE,153,0.0,0.0,81,0.00,,,0.00,WUHU216WMR968SP,2013-04-08 08:26:00,
2013-04-08 04:31:00,50.4,44.6,30.06,SSE,153,0.0,0.0,82,0.00,,,0.00,WUHU216WMR968SP,2013-04-08 08:31:00,
2013-04-08 04:37:00,50.4,44.6,30.06,SSE,153,0.0,0.0,82,0.00,,,0.00,WUHU216WMR968SP,2013-04-08 08:37:00,
2013-04-08 04:42:00,50.2,44.6,30.06,SSE,153,0.0,0.0,82,0.00,,,0.00,WUHU216WMR968SP,2013-04-08 08:42:00,
2013-04-08 04:47:00,50.0,44.6,30.06,SSE,153,0.0,0.0,82,0.00,,,0.00,WUHU216WMR968SP,2013-04-08 08:47:00,
2013-04-08 04:52:00,50.0,44.6,30.06,SSE,153,0.0,0.0,83,0.00,,,0.00,WUHU216WMR968SP,2013-04-08 08:52:00,
2013-04-08 04:57:00,50.2,44.6,30.06,SSE,153,0.0,0.0,83,0.00,,,0.00,WUHU216WMR968SP,2013-04-08 08:57:00,
2013-04-08 05:02:00,50.2,44.6,30.06,SSE,153,0.0,0.0,83,0.00,,,0.00,WUHU216WMR968SP,2013-04-08 09:02:00,
2013-04-08 05:07:00,50.2,44.6,30.06,SSE,153,0.0,0.0,83,0.00,,,0.00,WUHU216WMR968SP,2013-04-08 09:07:00,
2013-04-08 05:12:00,50.2,44.6,30.06,SSE,153,0.0,0.0,83,0.00,,,0.00,WUHU216WMR968SP,2013-04-08 09:12:00,
2013-04-08 05:17:00,50.4,44.6,30.06,SSE,153,0.0,0.0,83,0.00,,,0.00,WUHU216WMR968SP,2013-04-08 09:17:00,
2013-04-08 05:22:00,50.4,44.6,30.06,SSE,153,0.0,0.0,83,0.00,,,0.00,WUHU216WMR968SP,2013-04-08 09:22:00,
2013-04-08 05:27:00,50.2,44.6,30.06,SSE,153,0.0,0.0,83,0.00,,,0.00,WUHU216WMR968SP,2013-04-08 09:27:00,
2013-04-08 05:33:00,50.2,44.6,30.06,SSE,153,0.0,0.0,83,0.00,,,0.00,WUHU216WMR968SP,2013-04-08 09:33:00,
2013-04-08 05:38:00,50.2,44.6,30.06,SSE,153,0.0,0.0,83,0.00,,,0.00,WUHU216WMR968SP,2013-04-08 09:38:00,
2013-04-08 05:43:00,50.2,44.6,30.06,SSE,153,0.0,0.0,83,0.00,,,0.00,WUHU216WMR968SP,2013-04-08 09:43:00,
2013-04-08 05:48:00,50.2,44.6,30.06,SSE,153,0.0,0.0,83,0.00,,,0.00,WUHU216WMR968SP,2013-04-08 09:48:00,
2013-04-08 05:53:00,50.2,44.6,30.06,SSE,153,0.0,0.0,83,0.00,,,0.00,WUHU216WMR968SP,2013-04-08 09:53:00,
2013-04-08 05:58:00,50.2,44.6,30.06,SSE,153,0.0,0.0,84,0.00,,,0.00,WUHU216WMR968SP,2013-04-08 09:58:00,
2013-04-08 06:03:00,50.2,44.6,30.06,SSE,153,0.0,0.0,84,0.00,,,0.00,WUHU216WMR968SP,2013-04-08 10:03:00,
2013-04-08 06:08:00,50.2,44.6,30.06,SSE,153,0.0,0.0,84,0.00,,,0.00,WUHU216WMR968SP,2013-04-08 10:08:00,
2013-04-08 06:13:00,50.2,44.6,30.06,SSE,153,0.0,0.0,84,0.00,,,0.00,WUHU216WMR968SP,2013-04-08 10:13:00,
2013-04-08 06:18:00,50.4,44.6,30.06,SSE,153,0.0,0.0,84,0.00,,,0.00,WUHU216WMR968SP,2013-04-08 10:18:00,
2013-04-08 06:23:00,50.4,44.6,30.06,SSE,153,0.0,0.0,84,0.00,,,0.00,WUHU216WMR968SP,2013-04-08 10:23:00,
2013-04-08 06:28:00,50.4,44.6,30.06,SSE,153,0.0,0.0,84,0.00,,,0.00,WUHU216WMR968SP,2013-04-08 10:28:00,
2013-04-08 06:33:00,50.4,44.6,30.06,SSE,153,0.0,0.0,84,0.00,,,0.00,WUHU216WMR968SP,2013-04-08 10:33:00,
2013-04-08 06:38:00,50.4,44.6,30.06,SSE,153,0.0,0.0,84,0.00,,,0.00,WUHU216WMR968SP,2013-04-08 10:38:00,
2013-04-08 06:43:00,50.4,44.6,30.06,SSE,153,0.0,0.0,84,0.00,,,0.00,WUHU216WMR968SP,2013-04-08 10:43:00,
2013-04-08 06:48:00,50.2,44.6,30.06,SSE,153,0.0,0.0,84,0.00,,,0.00,WUHU216WMR968SP,2013-04-08 10:48:00,
2013-04-08 06:53:00,50.0,44.6,30.09,SSE,153,0.0,0.0,84,0.00,,,0.00,WUHU216WMR968SP,2013-04-08 10:53:00,
2013-04-08 06:58:00,49.8,46.4,30.09,SSE,153,0.0,0.0,85,0.00,,,0.00,WUHU216WMR968SP,2013-04-08 10:58:00,
2013-04-08 07:03:00,49.8,46.4,30.09,SSE,153,0.0,0.0,85,0.00,,,0.00,WUHU216WMR968SP,2013-04-08 11:03:00,
2013-04-08 07:09:00,49.6,46.4,30.09,SSE,153,0.0,0.0,86,0.00,,,0.00,WUHU216WMR968SP,2013-04-08 11:09:00,
2013-04-08 07:14:00,49.3,46.4,30.09,SSE,153,0.0,0.0,86,0.00,,,0.00,WUHU216WMR968SP,2013-04-08 11:14:00,
2013-04-08 07:19:00,49.3,46.4,30.09,SSE,153,0.0,0.0,86,0.00,,,0.00,WUHU216WMR968SP,2013-04-08 11:19:00,
2013-04-08 07:25:00,49.1,46.4,30.09,SSE,153,0.0,0.0,86,0.00,,,0.00,WUHU216WMR968SP,2013-04-08 11:25:00,
2013-04-08 07:30:00,49.3,46.4,30.09,SSE,153,0.0,0.0,86,0.00,,,0.00,WUHU216WMR968SP,2013-04-08 11:30:00,
2013-04-08 07:35:00,49.1,46.4,30.09,SSE,153,0.0,0.0,87,0.00,,,0.00,WUHU216WMR968SP,2013-04-08 11:35:00,
2013-04-08 07:40:00,49.1,46.4,30.09,SSE,153,0.0,0.0,87,0.00,,,0.00,WUHU216WMR968SP,2013-04-08 11:40:00,
2013-04-08 07:45:00,49.3,46.4,30.09,SSE,153,0.0,0.0,87,0.00,,,0.00,WUHU216WMR968SP,2013-04-08 11:45:00,
2013-04-08 07:50:00,49.6,46.4,30.09,SSE,153,0.0,0.0,88,0.00,,,0.00,WUHU216WMR968SP,2013-04-08 11:50:00,
2013-04-08 07:55:00,49.6,46.4,30.09,SSE,153,0.0,0.0,87,0.00,,,0.00,WUHU216WMR968SP,2013-04-08 11:55:00,
2013-04-08 08:00:00,50.2,46.4,30.09,SSE,153,0.0,0.0,87,0.00,,,0.00,WUHU216WMR968SP,2013-04-08 12:00:00,
2013-04-08 08:05:00,50.7,46.4,30.12,SSE,153,0.0,0.0,86,0.00,,,0.00,WUHU216WMR968SP,2013-04-08 12:05:00,
2013-04-08 08:10:00,51.4,48.2,30.12,SSE,153,0.0,0.0,86,0.00,,,0.00,WUHU216WMR968SP,2013-04-08 12:10:00,
2013-04-08 08:15:00,52.3,48.2,30.12,SSE,153,0.0,0.0,85,0.00,,,0.00,WUHU216WMR968SP,2013-04-08 12:15:00,
2013-04-08 08:21:00,52.7,48.2,30.12,SSE,153,0.0,0.0,84,0.00,,,0.00,WUHU216WMR968SP,2013-04-08 12:21:00,
2013-04-08 08:26:00,53.2,48.2,30.12,SSE,153,0.0,0.0,83,0.00,,,0.00,WUHU216WMR968SP,2013-04-08 12:26:00,
2013-04-08 08:31:00,53.6,48.2,30.12,SSE,153,0.0,0.0,82,0.00,,,0.00,WUHU216WMR968SP,2013-04-08 12:31:00,
2013-04-08 08:36:00,54.3,48.2,30.12,SSE,153,0.0,0.0,81,0.00,,,0.00,WUHU216WMR968SP,2013-04-08 12:36:00,
2013-04-08 08:41:00,55.0,50.0,30.12,SSE,153,0.0,0.0,81,0.00,,,0.00,WUHU216WMR968SP,2013-04-08 12:41:00,
2013-04-08 08:46:00,56.3,50.0,30.12,SE,141,0.0,0.0,79,0.00,,,0.00,WUHU216WMR968SP,2013-04-08 12:46:00,
2013-04-08 08:51:00,57.2,50.0,30.09,SE,141,0.0,0.0,78,0.00,,,0.00,WUHU216WMR968SP,2013-04-08 12:51:00,
2013-04-08 08:56:00,58.1,51.8,30.09,SE,141,0.0,0.0,77,0.00,,,0.00,WUHU216WMR968SP,2013-04-08 12:56:00,
2013-04-08 09:02:00,58.5,51.8,30.09,SE,141,0.0,0.0,76,0.00,,,0.00,WUHU216WMR968SP,2013-04-08 13:02:00,
2013-04-08 09:07:00,59.0,51.8,30.09,SW,229,0.0,0.0,75,0.00,,,0.00,WUHU216WMR968SP,2013-04-08 13:07:00,
2013-04-08 09:12:00,59.2,50.0,30.09,WSW,248,0.0,0.0,74,0.00,,,0.00,WUHU216WMR968SP,2013-04-08 13:12:00,
2013-04-08 09:17:00,59.4,50.0,30.09,WSW,248,0.0,0.0,73,0.00,,,0.00,WUHU216WMR968SP,2013-04-08 13:17:00,
2013-04-08 09:22:00,59.7,50.0,30.09,WSW,253,0.0,0.0,73,0.00,,,0.00,WUHU216WMR968SP,2013-04-08 13:22:00,
2013-04-08 09:27:00,59.5,50.0,30.09,WSW,258,0.0,0.0,73,0.00,,,0.00,WUHU216WMR968SP,2013-04-08 13:27:00,
2013-04-08 09:32:00,60.6,51.8,30.09,West,265,0.0,0.0,73,0.00,,,0.00,WUHU216WMR968SP,2013-04-08 13:32:00,
2013-04-08 09:37:00,60.6,51.8,30.09,SW,230,0.0,0.0,72,0.00,,,0.00,WUHU216WMR968SP,2013-04-08 13:37:00,
2013-04-08 09:42:00,61.3,51.8,30.09,WSW,250,0.0,0.0,70,0.00,,,0.00,WUHU216WMR968SP,2013-04-08 13:42:00,
2013-04-08 09:47:00,62.8,51.8,30.09,WNW,289,0.0,4.6,69,0.00,,,0.00,WUHU216WMR968SP,2013-04-08 13:47:00,
2013-04-08 09:52:00,63.5,53.6,30.09,West,269,0.0,5.4,66,0.00,,,0.00,WUHU216WMR968SP,2013-04-08 13:52:00,
2013-04-08 09:57:00,64.9,51.8,30.09,WSW,254,0.0,6.0,64,0.00,,,0.00,WUHU216WMR968SP,2013-04-08 13:57:00,
2013-04-08 10:02:00,65.5,53.6,30.09,West,270,0.0,6.0,63,0.00,,,0.00,WUHU216WMR968SP,2013-04-08 14:02:00,
2013-04-08 10:07:00,65.5,53.6,30.09,West,275,4.1,6.0,62,0.00,,,0.00,WUHU216WMR968SP,2013-04-08 14:07:00,
2013-04-08 10:13:00,65.8,53.6,30.09,West,272,3.3,6.0,62,0.00,,,0.00,WUHU216WMR968SP,2013-04-08 14:13:00,
2013-04-08 10:18:00,67.3,53.6,30.09,West,265,3.3,6.0,60,0.00,,,0.00,WUHU216WMR968SP,2013-04-08 14:18:00,
2013-04-08 10:23:00,66.7,51.8,30.09,WSW,246,5.4,7.4,59,0.00,,,0.00,WUHU216WMR968SP,2013-04-08 14:23:00,
2013-04-08 10:28:00,67.5,53.6,30.09,SW,229,0.0,7.4,59,0.00,,,0.00,WUHU216WMR968SP,2013-04-08 14:28:00,
2013-04-08 10:33:00,68.0,53.6,30.09,WNW,295,4.1,6.0,58,0.00,,,0.00,WUHU216WMR968SP,2013-04-08 14:33:00,
2013-04-08 10:38:00,68.9,53.6,30.09,West,263,5.4,7.4,58,0.00,,,0.00,WUHU216WMR968SP,2013-04-08 14:38:00,
2013-04-08 10:43:00,69.8,53.6,30.09,West,278,4.6,7.4,57,0.00,,,0.00,WUHU216WMR968SP,2013-04-08 14:43:00,
2013-04-08 10:48:00,70.2,53.6,30.09,SW,223,5.4,8.1,57,0.00,,,0.00,WUHU216WMR968SP,2013-04-08 14:48:00,
2013-04-08 10:53:00,70.0,53.6,30.09,West,261,4.1,8.1,57,0.00,,,0.00,WUHU216WMR968SP,2013-04-08 14:53:00,
2013-04-08 10:58:00,70.2,53.6,30.09,West,265,0.0,8.7,57,0.00,,,0.00,WUHU216WMR968SP,2013-04-08 14:58:00,
2013-04-08 11:03:00,70.2,53.6,30.09,SW,224,3.3,8.7,57,0.00,,,0.00,WUHU216WMR968SP,2013-04-08 15:03:00,
2013-04-08 11:08:00,71.4,55.4,30.12,NW,318,3.3,7.4,56,0.00,,,0.00,WUHU216WMR968SP,2013-04-08 15:08:00,
2013-04-08 11:13:00,71.4,55.4,30.12,SW,223,4.1,8.7,55,0.00,,,0.00,WUHU216WMR968SP,2013-04-08 15:13:00,
2013-04-08 11:18:00,71.2,55.4,30.12,WSW,239,5.4,12.2,55,0.00,,,0.00,WUHU216WMR968SP,2013-04-08 15:18:00,
2013-04-08 11:23:00,71.6,55.4,30.12,WNW,301,4.6,12.2,55,0.00,,,0.00,WUHU216WMR968SP,2013-04-08 15:23:00,
2013-04-08 11:28:00,72.0,53.6,30.12,NW,316,4.1,9.5,54,0.00,,,0.00,WUHU216WMR968SP,2013-04-08 15:28:00,
2013-04-08 11:33:00,72.5,55.4,30.12,West,260,4.1,9.5,54,0.00,,,0.00,WUHU216WMR968SP,2013-04-08 15:33:00,
2013-04-08 11:39:00,72.5,55.4,30.09,SW,223,6.0,8.7,53,0.00,,,0.00,WUHU216WMR968SP,2013-04-08 15:39:00,
2013-04-08 11:44:00,72.7,55.4,30.09,WSW,243,4.6,9.5,53,0.00,,,0.00,WUHU216WMR968SP,2013-04-08 15:44:00,
2013-04-08 11:49:00,72.9,55.4,30.09,WSW,240,4.1,11.4,53,0.00,,,0.00,WUHU216WMR968SP,2013-04-08 15:49:00,
2013-04-08 11:54:00,73.0,55.4,30.09,SSW,211,5.4,11.4,52,0.00,,,0.00,WUHU216WMR968SP,2013-04-08 15:54:00,
2013-04-08 11:59:00,72.3,53.6,30.09,SSW,195,4.6,12.2,52,0.00,,,0.00,WUHU216WMR968SP,2013-04-08 15:59:00,
2013-04-08 12:04:00,73.6,55.4,30.09,SE,125,3.3,12.5,52,0.00,,,0.00,WUHU216WMR968SP,2013-04-08 16:04:00,
2013-04-08 12:09:00,74.7,55.4,30.12,SSE,165,6.0,12.5,50,0.00,,,0.00,WUHU216WMR968SP,2013-04-08 16:09:00,
2013-04-08 12:14:00,74.3,55.4,30.12,SW,214,4.1,9.5,49,0.00,,,0.00,WUHU216WMR968SP,2013-04-08 16:14:00,
2013-04-08 12:19:00,74.1,51.8,30.12,SW,216,6.8,15.2,48,0.00,,,0.00,WUHU216WMR968SP,2013-04-08 16:19:00,
2013-04-08 12:25:00,73.9,51.8,30.12,WSW,258,3.3,15.2,48,0.00,,,0.00,WUHU216WMR968SP,2013-04-08 16:25:00,
2013-04-08 12:30:00,73.4,53.6,30.12,SW,218,4.6,13.0,49,0.00,,,0.00,WUHU216WMR968SP,2013-04-08 16:30:00,
2013-04-08 12:35:00,73.0,53.6,30.12,WSW,254,4.6,8.1,50,0.00,,,0.00,WUHU216WMR968SP,2013-04-08 16:35:00,
2013-04-08 12:40:00,72.5,53.6,30.12,West,266,6.0,8.1,50,0.00,,,0.00,WUHU216WMR968SP,2013-04-08 16:40:00,
2013-04-08 12:45:00,72.5,53.6,30.12,WSW,256,3.3,8.1,51,0.00,,,0.00,WUHU216WMR968SP,2013-04-08 16:45:00,
2013-04-08 12:50:00,72.9,53.6,30.12,WSW,244,4.6,11.4,50,0.00,,,0.00,WUHU216WMR968SP,2013-04-08 16:50:00,
2013-04-08 12:55:00,73.0,53.6,30.12,SW,232,6.0,12.5,49,0.00,,,0.00,WUHU216WMR968SP,2013-04-08 16:55:00,
2013-04-08 13:00:00,72.9,53.6,30.12,SW,218,3.3,12.5,49,0.00,,,0.00,WUHU216WMR968SP,2013-04-08 17:00:00,
2013-04-08 13:05:00,72.5,53.6,30.12,West,268,5.4,8.1,49,0.00,,,0.00,WUHU216WMR968SP,2013-04-08 17:05:00,
2013-04-08 13:10:00,72.3,51.8,30.09,WSW,238,5.4,8.1,49,0.00,,,0.00,WUHU216WMR968SP,2013-04-08 17:10:00,
2013-04-08 13:15:00,72.9,53.6,30.09,WSW,258,4.1,8.1,50,0.00,,,0.00,WUHU216WMR968SP,2013-04-08 17:15:00,
2013-04-08 13:20:00,73.4,53.6,30.09,SSW,199,8.1,9.5,49,0.00,,,0.00,WUHU216WMR968SP,2013-04-08 17:20:00,
2013-04-08 13:25:00,73.9,51.8,30.09,SSW,212,7.4,12.2,48,0.00,,,0.00,WUHU216WMR968SP,2013-04-08 17:25:00,
2013-04-08 13:30:00,73.9,51.8,30.09,SW,230,8.1,13.0,48,0.00,,,0.00,WUHU216WMR968SP,2013-04-08 17:30:00,
2013-04-08 13:35:00,73.2,51.8,30.09,SSW,199,6.8,13.0,48,0.00,,,0.00,WUHU216WMR968SP,2013-04-08 17:35:00,
2013-04-08 13:40:00,73.0,51.8,30.09,SW,224,7.4,13.0,48,0.00,,,0.00,WUHU216WMR968SP,2013-04-08 17:40:00,
2013-04-08 13:45:00,73.4,51.8,30.09,SW,223,3.3,12.2,48,0.00,,,0.00,WUHU216WMR968SP,2013-04-08 17:45:00,
2013-04-08 13:50:00,74.1,51.8,30.09,WSW,240,4.6,12.2,48,0.00,,,0.00,WUHU216WMR968SP,2013-04-08 17:50:00,
2013-04-08 13:55:00,74.1,51.8,30.09,WNW,290,5.4,14.4,47,0.00,,,0.00,WUHU216WMR968SP,2013-04-08 17:55:00,
2013-04-08 14:00:00,73.6,51.8,30.09,West,259,4.6,14.4,47,0.00,,,0.00,WUHU216WMR968SP,2013-04-08 18:00:00,
2013-04-08 14:05:00,73.6,51.8,30.09,WSW,242,5.4,10.8,47,0.00,,,0.00,WUHU216WMR968SP,2013-04-08 18:05:00,
2013-04-08 14:11:00,74.8,53.6,30.09,West,273,5.4,10.8,47,0.00,,,0.00,WUHU216WMR968SP,2013-04-08 18:11:00,
2013-04-08 14:16:00,76.3,55.4,30.09,SW,229,7.4,12.2,46,0.00,,,0.00,WUHU216WMR968SP,2013-04-08 18:16:00,
2013-04-08 14:21:00,76.1,53.6,30.09,WSW,240,6.0,13.0,45,0.00,,,0.00,WUHU216WMR968SP,2013-04-08 18:21:00,
2013-04-08 14:26:00,75.4,51.8,30.09,SSE,165,8.1,13.0,44,0.00,,,0.00,WUHU216WMR968SP,2013-04-08 18:26:00,
2013-04-08 14:31:00,75.0,51.8,30.09,SSW,213,5.4,12.5,45,0.00,,,0.00,WUHU216WMR968SP,2013-04-08 18:31:00,
2013-04-08 14:36:00,75.4,51.8,30.09,SW,220,5.4,12.5,45,0.00,,,0.00,WUHU216WMR968SP,2013-04-08 18:36:00,
2013-04-08 14:42:00,75.2,51.8,30.09,SW,216,6.0,9.5,44,0.00,,,0.00,WUHU216WMR968SP,2013-04-08 18:42:00,
2013-04-08 14:47:00,75.9,51.8,30.09,SW,224,8.7,12.5,44,0.00,,,0.00,WUHU216WMR968SP,2013-04-08 18:47:00,
2013-04-08 14:52:00,75.4,51.8,30.09,SW,232,5.4,12.5,44,0.00,,,0.00,WUHU216WMR968SP,2013-04-08 18:52:00,
2013-04-08 14:57:00,75.0,51.8,30.09,West,261,4.1,12.2,45,0.00,,,0.00,WUHU216WMR968SP,2013-04-08 18:57:00,
2013-04-08 15:02:00,75.2,51.8,30.09,SW,215,7.4,12.2,44,0.00,,,0.00,WUHU216WMR968SP,2013-04-08 19:02:00,
2013-04-08 15:07:00,75.4,51.8,30.06,SSW,212,6.0,15.2,45,0.00,,,0.00,WUHU216WMR968SP,2013-04-08 19:07:00,
2013-04-08 15:12:00,75.6,51.8,30.06,WSW,255,7.4,15.2,44,0.00,,,0.00,WUHU216WMR968SP,2013-04-08 19:12:00,
2013-04-08 15:17:00,75.6,51.8,30.06,SE,141,4.1,12.5,44,0.00,,,0.00,WUHU216WMR968SP,2013-04-08 19:17:00,
2013-04-08 15:23:00,75.6,51.8,30.06,WSW,240,4.1,13.0,44,0.00,,,0.00,WUHU216WMR968SP,2013-04-08 19:23:00,
2013-04-08 15:28:00,75.6,51.8,30.06,West,269,7.4,13.0,44,0.00,,,0.00,WUHU216WMR968SP,2013-04-08 19:28:00,
2013-04-08 15:33:00,75.4,51.8,30.06,SSW,207,4.6,10.8,44,0.00,,,0.00,WUHU216WMR968SP,2013-04-08 19:33:00,
2013-04-08 15:38:00,75.2,51.8,30.06,SSW,203,5.4,9.5,44,0.00,,,0.00,WUHU216WMR968SP,2013-04-08 19:38:00,
2013-04-08 15:43:00,75.4,51.8,30.06,West,259,6.8,11.4,44,0.00,,,0.00,WUHU216WMR968SP,2013-04-08 19:43:00,
2013-04-08 15:48:00,75.4,51.8,30.06,WNW,282,5.4,11.4,44,0.00,,,0.00,WUHU216WMR968SP,2013-04-08 19:48:00,
2013-04-08 15:53:00,75.2,51.8,30.06,SW,234,7.4,15.8,43,0.00,,,0.00,WUHU216WMR968SP,2013-04-08 19:53:00,
2013-04-08 15:58:00,75.4,51.8,30.06,WSW,255,5.4,15.8,44,0.00,,,0.00,WUHU216WMR968SP,2013-04-08 19:58:00,
2013-04-08 16:03:00,75.9,51.8,30.06,WSW,241,4.6,13.0,44,0.00,,,0.00,WUHU216WMR968SP,2013-04-08 20:03:00,
2013-04-08 16:08:00,76.6,53.6,30.06,West,268,6.8,12.5,43,0.00,,,0.00,WUHU216WMR968SP,2013-04-08 20:08:00,
2013-04-08 16:13:00,77.4,53.6,30.06,NNW,329,6.0,12.5,43,0.00,,,0.00,WUHU216WMR968SP,2013-04-08 20:13:00,
2013-04-08 16:19:00,77.2,51.8,30.06,SW,228,5.4,12.5,42,0.00,,,0.00,WUHU216WMR968SP,2013-04-08 20:19:00,
2013-04-08 16:24:00,77.4,51.8,30.06,WSW,249,6.0,11.4,42,0.00,,,0.00,WUHU216WMR968SP,2013-04-08 20:24:00,
2013-04-08 16:29:00,77.7,51.8,30.06,North,6,6.0,11.4,41,0.00,,,0.00,WUHU216WMR968SP,2013-04-08 20:29:00,
2013-04-08 16:34:00,77.9,53.6,30.06,West,263,7.4,13.0,41,0.00,,,0.00,WUHU216WMR968SP,2013-04-08 20:34:00,
2013-04-08 16:39:00,77.5,51.8,30.03,SSW,202,4.1,13.0,41,0.00,,,0.00,WUHU216WMR968SP,2013-04-08 20:39:00,
2013-04-08 16:44:00,77.5,51.8,30.03,SW,235,4.6,12.2,41,0.00,,,0.00,WUHU216WMR968SP,2013-04-08 20:44:00,
2013-04-08 16:49:00,77.2,51.8,30.03,WNW,296,8.7,15.8,41,0.00,,,0.00,WUHU216WMR968SP,2013-04-08 20:49:00,
2013-04-08 16:54:00,76.8,51.8,30.06,SW,235,7.4,15.8,42,0.00,,,0.00,WUHU216WMR968SP,2013-04-08 20:54:00,
2013-04-08 16:59:00,76.8,51.8,30.06,NE,51,4.6,13.0,42,0.00,,,0.00,WUHU216WMR968SP,2013-04-08 20:59:00,
2013-04-08 17:04:00,77.0,51.8,30.06,South,178,6.8,12.2,41,0.00,,,0.00,WUHU216WMR968SP,2013-04-08 21:04:00,
2013-04-08 17:09:00,77.0,51.8,30.03,South,190,4.1,9.5,41,0.00,,,0.00,WUHU216WMR968SP,2013-04-08 21:09:00,
2013-04-08 17:14:00,77.5,51.8,30.03,WSW,246,4.1,9.5,41,0.00,,,0.00,WUHU216WMR968SP,2013-04-08 21:14:00,
2013-04-08 17:20:00,77.9,51.8,30.03,SW,229,9.5,12.5,40,0.00,,,0.00,WUHU216WMR968SP,2013-04-08 21:20:00,
2013-04-08 17:25:00,77.5,51.8,30.03,WSW,258,6.0,14.4,40,0.00,,,0.00,WUHU216WMR968SP,2013-04-08 21:25:00,
2013-04-08 17:30:00,77.7,51.8,30.03,SW,236,5.4,14.4,40,0.00,,,0.00,WUHU216WMR968SP,2013-04-08 21:30:00,
2013-04-08 17:35:00,77.9,51.8,30.03,WNW,286,6.0,13.0,40,0.00,,,0.00,WUHU216WMR968SP,2013-04-08 21:35:00,
2013-04-08 17:40:00,78.1,51.8,30.03,SSW,208,6.0,13.0,40,0.00,,,0.00,WUHU216WMR968SP,2013-04-08 21:40:00,
2013-04-08 17:45:00,77.9,51.8,30.03,SSW,194,6.0,14.4,39,0.00,,,0.00,WUHU216WMR968SP,2013-04-08 21:45:00,
2013-04-08 17:50:00,77.7,50.0,30.03,South,176,6.8,14.4,39,0.00,,,0.00,WUHU216WMR968SP,2013-04-08 21:50:00,
2013-04-08 17:55:00,77.5,50.0,30.03,WNW,282,7.4,12.5,39,0.00,,,0.00,WUHU216WMR968SP,2013-04-08 21:55:00,
2013-04-08 18:00:00,77.4,51.8,30.03,SW,230,6.0,12.5,40,0.00,,,0.00,WUHU216WMR968SP,2013-04-08 22:00:00,
2013-04-08 18:05:00,77.4,51.8,30.03,WSW,242,7.4,13.0,40,0.00,,,0.00,WUHU216WMR968SP,2013-04-08 22:05:00,
2013-04-08 18:10:00,77.2,51.8,30.03,SW,227,6.0,13.0,40,0.00,,,0.00,WUHU216WMR968SP,2013-04-08 22:10:00,
2013-04-08 18:15:00,77.2,51.8,30.03,SSW,201,0.0,10.0,40,0.00,,,0.00,WUHU216WMR968SP,2013-04-08 22:15:00,
2013-04-08 18:21:00,76.8,51.8,30.03,SE,137,6.0,10.0,41,0.00,,,0.00,WUHU216WMR968SP,2013-04-08 22:21:00,
2013-04-08 18:26:00,76.8,51.8,30.03,SW,228,5.4,9.5,41,0.00,,,0.00,WUHU216WMR968SP,2013-04-08 22:26:00,
2013-04-08 18:31:00,77.0,51.8,30.03,SSW,196,6.0,9.5,41,0.00,,,0.00,WUHU216WMR968SP,2013-04-08 22:31:00,
2013-04-08 18:36:00,76.8,51.8,30.03,South,171,3.3,8.7,41,0.00,,,0.00,WUHU216WMR968SP,2013-04-08 22:36:00,
2013-04-08 18:41:00,76.5,51.8,30.03,East,95,6.0,11.4,41,0.00,,,0.00,WUHU216WMR968SP,2013-04-08 22:41:00,
2013-04-08 18:46:00,75.9,50.0,30.03,SSE,150,7.4,15.2,41,0.00,,,0.00,WUHU216WMR968SP,2013-04-08 22:46:00,
2013-04-08 18:51:00,75.7,50.0,30.03,SSW,203,4.6,15.2,41,0.00,,,0.00,WUHU216WMR968SP,2013-04-08 22:51:00,
2013-04-08 18:56:00,75.7,50.0,30.03,WNW,293,5.4,15.2,41,0.00,,,0.00,WUHU216WMR968SP,2013-04-08 22:56:00,
2013-04-08 19:01:00,75.7,50.0,30.03,SSW,213,5.4,15.2,41,0.00,,,0.00,WUHU216WMR968SP,2013-04-08 23:01:00,
2013-04-08 19:06:00,75.6,50.0,30.03,SW,219,4.6,9.5,42,0.00,,,0.00,WUHU216WMR968SP,2013-04-08 23:06:00,
2013-04-08 19:12:00,75.6,50.0,30.03,SSE,167,4.1,11.4,42,0.00,,,0.00,WUHU216WMR968SP,2013-04-08 23:12:00,
2013-04-08 19:17:00,75.4,50.0,30.03,South,179,0.0,11.4,42,0.00,,,0.00,WUHU216WMR968SP,2013-04-08 23:17:00,
2013-04-08 19:22:00,75.2,50.0,30.03,SE,137,0.0,8.7,42,0.00,,,0.00,WUHU216WMR968SP,2013-04-08 23:22:00,
2013-04-08 19:27:00,75.0,51.8,30.03,SW,215,3.3,9.5,43,0.00,,,0.00,WUHU216WMR968SP,2013-04-08 23:27:00,
2013-04-08 19:32:00,74.7,51.8,30.03,West,259,4.6,9.5,43,0.00,,,0.00,WUHU216WMR968SP,2013-04-08 23:32:00,
2013-04-08 19:37:00,74.3,51.8,30.03,SSE,165,0.0,8.1,43,0.00,,,0.00,WUHU216WMR968SP,2013-04-08 23:37:00,
2013-04-08 19:42:00,74.3,51.8,30.03,SW,234,5.4,11.4,43,0.00,,,0.00,WUHU216WMR968SP,2013-04-08 23:42:00,
2013-04-08 19:47:00,74.1,50.0,30.03,SSW,206,0.0,11.4,43,0.00,,,0.00,WUHU216WMR968SP,2013-04-08 23:47:00,
2013-04-08 19:52:00,73.9,50.0,30.03,SSE,161,6.0,11.4,43,0.00,,,0.00,WUHU216WMR968SP,2013-04-08 23:52:00,
2013-04-08 19:57:00,73.6,50.0,30.03,SSE,148,6.0,8.7,43,0.00,,,0.00,WUHU216WMR968SP,2013-04-08 23:57:00,
2013-04-08 20:02:00,73.0,50.0,30.03,South,187,4.1,8.7,43,0.00,,,0.00,WUHU216WMR968SP,2013-04-09 00:02:00,
2013-04-08 20:07:00,72.7,50.0,30.03,South,179,4.1,8.7,44,0.00,,,0.00,WUHU216WMR968SP,2013-04-09 00:07:00,
2013-04-08 20:13:00,72.5,50.0,30.03,SW,217,3.3,12.2,44,0.00,,,0.00,WUHU216WMR968SP,2013-04-09 00:13:00,
2013-04-08 20:18:00,72.1,48.2,30.03,SSW,212,0.0,12.2,44,0.00,,,0.00,WUHU216WMR968SP,2013-04-09 00:18:00,
2013-04-08 20:23:00,72.0,48.2,30.03,SW,230,4.1,9.5,44,0.00,,,0.00,WUHU216WMR968SP,2013-04-09 00:23:00,
2013-04-08 20:28:00,71.6,48.2,30.03,SSW,199,5.4,10.0,44,0.00,,,0.00,WUHU216WMR968SP,2013-04-09 00:28:00,
2013-04-08 20:33:00,71.1,50.0,30.03,SW,224,7.4,12.5,45,0.00,,,0.00,WUHU216WMR968SP,2013-04-09 00:33:00,
2013-04-08 20:38:00,70.9,50.0,30.03,SW,224,0.0,12.5,45,0.00,,,0.00,WUHU216WMR968SP,2013-04-09 00:38:00,
2013-04-08 20:43:00,70.5,48.2,30.03,SW,228,0.0,8.1,46,0.00,,,0.00,WUHU216WMR968SP,2013-04-09 00:43:00,
2013-04-08 20:48:00,70.2,48.2,30.03,SSW,203,3.3,8.1,46,0.00,,,0.00,WUHU216WMR968SP,2013-04-09 00:48:00,
2013-04-08 20:53:00,70.2,48.2,30.03,SSW,204,3.3,6.0,46,0.00,,,0.00,WUHU216WMR968SP,2013-04-09 00:53:00,
2013-04-08 20:59:00,70.0,48.2,30.03,SSW,205,4.1,8.1,46,0.00,,,0.00,WUHU216WMR968SP,2013-04-09 00:59:00,
2013-04-08 21:04:00,70.2,48.2,30.03,SSW,202,0.0,8.1,46,0.00,,,0.00,WUHU216WMR968SP,2013-04-09 01:04:00,
2013-04-08 21:09:00,70.0,48.2,30.03,South,183,3.3,6.0,46,0.00,,,0.00,WUHU216WMR968SP,2013-04-09 01:09:00,
2013-04-08 21:14:00,69.8,48.2,30.03,SSE,149,0.0,6.0,47,0.00,,,0.00,WUHU216WMR968SP,2013-04-09 01:14:00,
2013-04-08 21:19:00,70.0,48.2,30.03,SSE,162,3.3,8.1,47,0.00,,,0.00,WUHU216WMR968SP,2013-04-09 01:19:00,
2013-04-08 21:24:00,69.8,48.2,30.03,SSW,213,0.0,8.1,47,0.00,,,0.00,WUHU216WMR968SP,2013-04-09 01:24:00,
2013-04-08 21:29:00,69.3,50.0,30.03,SSE,166,0.0,6.0,48,0.00,,,0.00,WUHU216WMR968SP,2013-04-09 01:29:00,
2013-04-08 21:34:00,69.3,50.0,30.03,South,169,0.0,8.1,48,0.00,,,0.00,WUHU216WMR968SP,2013-04-09 01:34:00,
2013-04-08 21:39:00,69.3,50.0,30.06,SSE,166,0.0,8.7,48,0.00,,,0.00,WUHU216WMR968SP,2013-04-09 01:39:00,
2013-04-08 21:44:00,68.2,48.2,30.06,SSE,166,0.0,8.7,49,0.00,,,0.00,WUHU216WMR968SP,2013-04-09 01:44:00,
2013-04-08 21:50:00,67.6,48.2,30.06,SSE,166,0.0,0.0,50,0.00,,,0.00,WUHU216WMR968SP,2013-04-09 01:50:00,
2013-04-08 21:55:00,67.6,50.0,30.06,South,170,0.0,6.0,51,0.00,,,0.00,WUHU216WMR968SP,2013-04-09 01:55:00,
2013-04-08 22:00:00,67.5,50.0,30.06,SSE,154,4.1,6.0,51,0.00,,,0.00,WUHU216WMR968SP,2013-04-09 02:00:00,
2013-04-08 22:05:00,67.3,50.0,30.06,SSE,152,4.1,8.7,51,0.00,,,0.00,WUHU216WMR968SP,2013-04-09 02:05:00,
2013-04-08 22:10:00,66.7,48.2,30.06,SSE,156,0.0,8.7,52,0.00,,,0.00,WUHU216WMR968SP,2013-04-09 02:10:00,
2013-04-08 22:15:00,66.6,48.2,30.06,ESE,114,0.0,4.6,52,0.00,,,0.00,WUHU216WMR968SP,2013-04-09 02:15:00,
2013-04-08 22:20:00,66.2,48.2,30.06,SSE,148,0.0,4.1,53,0.00,,,0.00,WUHU216WMR968SP,2013-04-09 02:20:00,
2013-04-08 22:25:00,65.8,50.0,30.06,SE,140,3.3,4.1,54,0.00,,,0.00,WUHU216WMR968SP,2013-04-09 02:25:00,
2013-04-08 22:30:00,65.7,50.0,30.06,ESE,112,0.0,4.1,55,0.00,,,0.00,WUHU216WMR968SP,2013-04-09 02:30:00,
2013-04-08 22:35:00,65.5,50.0,30.06,SE,145,0.0,4.1,55,0.00,,,0.00,WUHU216WMR968SP,2013-04-09 02:35:00,
2013-04-08 22:41:00,65.1,48.2,30.06,SSE,155,0.0,6.0,55,0.00,,,0.00,WUHU216WMR968SP,2013-04-09 02:41:00,
2013-04-08 22:46:00,64.6,48.2,30.06,South,178,3.3,6.0,56,0.00,,,0.00,WUHU216WMR968SP,2013-04-09 02:46:00,
2013-04-08 22:51:00,64.2,48.2,30.06,SSE,159,0.0,6.0,57,0.00,,,0.00,WUHU216WMR968SP,2013-04-09 02:51:00,
2013-04-08 22:56:00,64.0,50.0,30.06,SSE,159,0.0,4.6,58,0.00,,,0.00,WUHU216WMR968SP,2013-04-09 02:56:00,
2013-04-08 23:01:00,63.5,50.0,30.06,SSE,159,0.0,0.0,59,0.00,,,0.00,WUHU216WMR968SP,2013-04-09 03:01:00,
2013-04-08 23:06:00,63.1,48.2,30.06,SSE,159,0.0,0.0,59,0.00,,,0.00,WUHU216WMR968SP,2013-04-09 03:06:00,
2013-04-08 23:11:00,62.8,48.2,30.06,SSE,159,0.0,0.0,60,0.00,,,0.00,WUHU216WMR968SP,2013-04-09 03:11:00,
2013-04-08 23:16:00,62.2,50.0,30.06,SSE,159,0.0,0.0,62,0.00,,,0.00,WUHU216WMR968SP,2013-04-09 03:16:00,
2013-04-08 23:21:00,61.5,48.2,30.06,SSE,159,0.0,0.0,63,0.00,,,0.00,WUHU216WMR968SP,2013-04-09 03:21:00,
2013-04-08 23:26:00,61.3,48.2,30.06,SSE,159,0.0,0.0,65,0.00,,,0.00,WUHU216WMR968SP,2013-04-09 03:26:00,
2013-04-08 23:32:00,61.0,48.2,30.06,SSE,159,0.0,0.0,65,0.00,,,0.00,WUHU216WMR968SP,2013-04-09 03:32:00,
2013-04-08 23:37:00,60.6,50.0,30.09,SSE,159,0.0,0.0,66,0.00,,,0.00,WUHU216WMR968SP,2013-04-09 03:37:00,
2013-04-08 23:42:00,60.4,50.0,30.09,SSE,159,0.0,0.0,66,0.00,,,0.00,WUHU216WMR968SP,2013-04-09 03:42:00,
2013-04-08 23:47:00,60.4,50.0,30.09,SSE,159,0.0,0.0,66,0.00,,,0.00,WUHU216WMR968SP,2013-04-09 03:47:00,
2013-04-08 23:52:00,60.4,50.0,30.06,SSE,159,0.0,0.0,67,0.00,,,0.00,WUHU216WMR968SP,2013-04-09 03:52:00,
2013-04-08 23:57:00,60.4,50.0,30.06,SSE,159,0.0,0.0,67,0.00,,,0.00,WUHU216WMR968SP,2013-04-09 03:57:00,